STARLINK-5083 (55356 NORAD) Tracking and Keplerian Element Data

This shows tracking and keplerian element data for the satellite.

Feedback or suggestion? Click here.




ElementValue
Catalog55356
NameSTARLINK-5083
Epoch Orbit576
Epoch Day62.74206763
Epoch Year2023
RAAN183.8829
Inclination43.0013
Eccentricity0.0002084
Argument of Perigee292.2073
Mean Anonmoly67.8573
Mean Motion15.71353488
Decay Rate-7.71E-06
L11 55356U 23013AB 23062.74206763 -.00000771 00000+0 -24272-5 0 9999
L22 55356 43.0013 183.8829 0002084 292.2073 67.8573 15.71353488 5764



Live tracking and technical data element details for STARLINK-5083 (NORAD 55356). STARLINK-5083 can be tracked NOW for your location showing map with azimuth and elevation plus other details from your city location.







IsCatalogInMostPopularTable: catalog: 55356, numindb: -1

Insert: records affected: 1


GetName: 55356 STARLINK-5083

Hit Count: inserted at: Sun, 28 May 2023 06:35:38 GMT